Probability
0 0 0 0 0 0 0 0 0 0 0 0 0 0 0 0 0 0 0 1 3 3 4 6 6 7 7 7 6 5 4 4 3 3 3 3 3 3 3 2 1 1 1 2 2 3 5 6 6
0 0 0 0 0 0 0 0 0 0 0 0 0 0 0 0 0 0 1 2 4 4 5 6 7 8 8 7 7 6 5 4 3 3 3 3 3 3 3 3 2 2 2 2 3 4 5 6 5
0 0 0 0 0 0 0 0 0 0 0 0 0 0 0 0 0 1 2 4 5 5 5 6 7 9 9 9 8 7 5 5 4 4 4 3 3 3 3 3 3 3 2 2 3 4 5 5 4
0 0 0 0 0 0 0 0 0 0 0 0 0 0 1 1 1 2 4 5 5 5 5 6 8 9 10 10 9 8 6 6 6 5 5 4 3 3 3 3 3 3 3 2 3 4 4 4 4
0 0 0 0 0 0 0 0 0 0 0 0 0 1 2 2 3 4 6 5 5 4 4 6 8 10 11 11 10 7 6 6 5 5 6 5 4 3 3 3 3 3 3 3 4 4 3 3 3
0 0 0 0 0 0 0 0 0 0 0 0 0 1 2 4 5 5 6 5 3 2 3 6 8 9 10 11 10 7 5 4 4 4 5 6 4 3 3 3 3 3 3 3 4 3 3 3 3
0 0 0 0 0 0 0 0 0 0 0 0 0 0 2 6 6 5 3 3 1 1 3 4 6 8 9 10 9 5 3 3 3 3 4 5 5 4 4 3 3 3 3 3 3 1 1 3 3
0 0 0 0 0 0 0 0 0 0 0 0 0 0 4 10 10 5 2 1 0 1 2 3 5 6 7 8 7 5 3 3 4 3 3 4 4 4 4 4 3 3 3 3 2 1 1 2 3
0 0 0 0 0 0 0 0 0 0 0 0 0 1 8 16 14 7 4 2 0 1 2 3 4 6 7 7 8 7 5 5 5 4 4 4 3 3 3 3 3 2 2 1 1 0 1 2 3
0 0 0 0 0 0 0 0 0 0 0 0 0 2 9 17 15 9 7 4 2 1 3 4 5 6 7 8 10 10 9 8 7 6 6 6 4 2 2 2 1 1 1 0 0 0 1 2 3
0 0 0 0 0 0 0 0 0 0 0 0 1 4 9 13 13 9 7 5 3 2 4 5 6 7 7 9 10 11 12 11 9 8 8 8 5 3 1 0 0 0 0 0 0 0 1 2 2
0 0 0 0 0 0 0 0 0 1 1 1 3 6 8 10 11 8 6 5 4 4 5 7 9 9 9 9 10 11 12 11 11 10 10 9 7 4 1 0 0 0 1 1 2 2 1 1 2
0 0 0 0 0 0 0 1 1 2 2 3 4 6 6 6 8 7 5 5 6 6 7 9 11 11 12 12 12 12 12 12 12 12 10 9 7 5 3 1 1 1 2 3 4 3 1 2 3
0 0 0 0 1 1 1 2 3 3 3 4 5 6 5 4 4 4 5 8 8 8 9 11 12 13 13 14 14 14 14 13 12 11 9 7 6 5 4 3 2 2 3 5 6 4 2 2 4
0 0 0 1 2 2 3 3 3 3 3 4 6 6 4 4 4 4 6 9 10 11 13 14 14 15 15 15 15 16 15 13 10 8 7 6 6 5 4 3 3 3 5 7 7 5 3 3 3
0 0 0 1 2 3 3 3 3 3 3 4 6 6 5 5 5 5 6 8 11 14 18 17 16 17 18 17 16 16 15 12 8 6 5 6 6 5 4 4 4 5 6 7 7 6 4 3 2
0 0 0 1 2 3 3 3 3 3 3 5 6 5 4 4 5 5 5 8 12 17 19 19 18 19 20 21 20 18 15 12 8 7 7 7 7 6 6 5 5 5 6 7 6 5 4 2 0
0 0 0 0 1 1 2 2 2 2 3 4 4 4 4 5 5 6 7 9 13 16 18 18 20 23 24 24 23 20 17 13 10 9 9 8 7 8 8 7 6 7 8 8 6 4 3 1 0
0 0 0 0 0 1 2 1 1 2 3 3 2 3 5 8 9 10 10 11 15 19 20 20 23 28 29 28 26 23 20 17 13 10 9 10 9 9 10 9 8 9 10 9 7 5 4 2 1
0 0 0 0 0 1 1 1 1 2 3 2 2 3 5 9 12 13 13 13 17 22 24 24 27 31 32 30 26 23 20 19 16 11 10 11 11 11 10 9 10 11 12 10 7 6 5 4 3
0 0 0 0 0 0 0 0 1 2 3 2 1 2 4 8 12 15 15 15 18 23 25 26 30 34 34 30 24 20 20 21 20 17 13 13 13 12 9 8 9 11 11 10 8 7 6 5 5
0 0 0 0 0 0 0 0 0 1 2 2 1 2 4 7 13 17 17 17 19 22 24 27 33 37 37 31 25 22 23 24 25 23 19 16 14 12 9 7 8 10 10 9 9 8 6 5 5
0 0 0 0 0 0 0 0 0 0 1 1 1 2 5 9 14 18 20 21 22 22 24 29 36 41 39 33 28 27 26 26 28 28 24 20 17 13 9 8 8 9 9 9 10 9 7 6 7
0 0 0 0 0 0 0 0 0 0 1 1 1 3 7 12 16 20 24 27 27 25 27 33 41 44 39 33 28 27 26 27 28 29 26 23 19 16 12 10 10 11 11 11 11 10 9 9 10
0 0 0 0 0 0 0 0 0 0 1 2 1 3 8 13 19 25 31 34 32 31 34 40 46 47 41 35 29 25 25 26 26 26 24 21 18 16 14 12 13 15 15 14 12 12 12 13 13
0 0 0 0 0 0 0 0 0 1 1 1 2 3 7 14 22 29 34 37 36 36 40 44 46 46 43 40 33 26 24 24 24 23 20 18 16 14 13 13 14 16 18 17 16 15 15 15 15
0 0 0 0 0 0 0 0 0 1 1 1 2 4 7 13 20 25 29 33 35 38 41 40 40 42 44 43 36 28 25 25 23 22 20 19 17 14 12 13 14 16 18 18 17 16 16 15 14
0 0 0 0 0 0 0 0 0 0 0 1 3 6 9 12 16 19 22 25 29 34 36 34 33 37 43 43 36 29 27 26 24 22 21 21 20 18 16 14 14 16 16 15 14 13 13 12 11
0 0 0 0 0 0 0 0 0 0 0 1 4 8 13 15 16 17 18 19 23 27 29 29 30 35 41 41 36 32 30 28 24 22 22 21 20 20 19 18 17 16 16 15 14 12 11 10 10
0 0 0 0 0 0 0 0 0 0 1 2 6 11 16 17 18 18 17 17 21 24 25 26 29 35 40 40 37 35 33 29 25 23 22 21 19 18 19 19 18 16 16 16 16 14 12 11 10
Wind_Speed
10 8 6 6 8 2 6 6 5 5 4 5 4 3 5 6 6 7 7 9 10 11 11 12 9 8 8 7 7 6 6 6 6 6 6 5 5 5 5 5 6 6 6 6 6 6 8 10 10
6 6 7 7 5 3 6 5 5 6 5 4 3 2 3 6 6 7 8 10 11 11 10 10 10 8 8 7 7 6 6 6 5 5 5 5 5 5 5 6 6 6 6 7 7 8 9 9 9
6 7 7 5 1 3 6 5 5 5 4 2 3 3 4 5 6 6 9 12 11 10 10 11 10 8 8 7 6 6 5 5 5 4 4 4 4 5 5 5 6 6 6 7 7 7 8 8 7
6 7 6 3 3 5 5 4 3 4 4 2 2 5 5 5 4 7 12 12 11 10 10 12 9 8 7 7 6 6 5 5 5 4 4 4 5 4 4 5 5 5 5 6 6 6 7 7 7
6 6 5 2 3 4 3 3 2 2 3 4 2 5 7 6 7 11 12 12 11 10 9 12 10 8 7 6 6 5 5 4 4 4 5 5 4 4 4 4 4 4 5 5 5 5 6 6 7
6 5 4 2 4 3 3 2 1 2 4 4 4 5 6 7 9 11 12 11 10 9 9 11 11 8 7 6 5 5 4 4 4 4 4 4 3 3 3 3 3 3 4 4 5 5 5 6 6
6 4 2 2 3 4 3 2 1 1 3 4 3 4 7 8 9 10 11 10 10 9 9 9 10 9 8 7 5 4 4 3 3 3 3 3 2 2 2 2 2 3 3 4 5 5 5 6 6
5 4 4 3 3 3 3 1 1 1 3 4 2 2 6 10 11 10 10 10 9 8 7 7 7 8 8 8 7 5 4 3 2 3 2 1 2 2 1 2 5 4 4 4 5 5 5 5 5
6 6 4 2 1 3 2 1 2 2 3 3 1 2 8 14 13 12 10 10 9 8 7 6 6 6 5 5 7 6 6 4 4 4 3 2 1 2 3 7 7 5 4 4 5 5 5 5 6
6 5 2 1 1 1 0 2 2 4 5 5 5 7 12 14 14 13 12 12 11 10 8 6 6 6 5 4 4 3 4 4 2 1 1 1 2 2 3 7 5 4 4 4 5 5 6 4 3
5 5 1 1 2 3 2 2 3 5 5 4 6 10 13 14 13 12 11 11 10 9 8 7 6 5 4 3 3 2 1 2 2 1 0 1 0 1 1 1 3 3 3 2 4 5 2 1 1
6 4 4 3 2 4 4 3 3 5 2 0 4 10 13 14 13 12 11 10 9 9 9 7 7 6 4 2 2 2 2 2 1 1 1 1 0 1 1 1 1 0 1 1 1 1 2 2 1
8 5 5 5 5 5 5 5 4 3 1 2 6 10 12 12 12 11 9 9 9 9 9 8 7 6 5 3 2 2 1 1 2 1 1 0 0 0 1 1 1 1 1 1 1 1 1 2 2
4 5 6 5 4 5 6 5 5 4 3 5 7 9 10 11 11 10 9 9 9 9 9 8 8 7 6 5 3 2 2 1 1 1 1 0 0 1 1 1 1 1 1 1 1 1 1 1 1
5 8 8 6 6 5 6 8 8 4 5 6 7 8 9 10 10 10 10 9 9 9 9 8 8 7 6 5 4 3 2 1 1 1 1 1 0 0 0 0 0 1 1 0 0 1 1 1 1
9 10 9 7 5 5 9 7 6 5 6 7 7 7 8 9 10 10 10 9 8 8 8 8 6 7 7 5 4 2 2 2 1 1 1 1 1 1 1 0 0 0 0 0 0 1 1 1 1
11 10 9 7 5 5 8 6 4 4 6 7 7 7 7 8 10 9 9 9 9 8 8 7 7 7 7 6 4 3 2 2 1 1 1 1 1 1 1 0 0 1 1 0 1 1 1 1 1
9 10 9 7 5 6 8 7 3 4 6 6 7 7 7 8 9 9 9 9 9 9 8 8 7 6 6 5 4 3 3 3 2 1 1 1 1 2 2 1 1 1 1 0 0 1 1 0 1
7 9 8 6 3 7 8 8 5 5 6 7 7 7 7 7 7 7 8 9 9 9 9 8 8 7 6 5 5 4 4 3 2 2 2 2 2 2 2 1 2 1 1 1 1 1 2 1 1
10 11 10 6 4 7 8 8 6 5 6 6 6 7 7 7 7 8 8 9 10 9 9 9 9 8 7 5 4 3 3 3 2 2 2 2 2 2 2 2 2 2 2 2 1 1 1 1 2
12 11 9 7 5 8 9 10 8 6 6 5 6 6 6 7 7 8 8 9 9 9 9 8 8 8 7 6 4 4 4 3 3 3 2 2 2 2 2 2 2 2 3 2 2 2 2 2 2
11 9 9 8 9 7 8 9 8 7 6 6 6 5 5 6 7 8 8 8 9 9 9 9 8 8 8 7 6 6 4 4 3 2 2 3 2 2 2 2 3 3 2 2 3 2 2 2 2
8 5 8 9 10 10 9 10 6 7 7 5 4 4 3 5 6 7 8 8 8 8 8 8 8 8 8 8 7 6 5 4 3 3 2 2 2 2 2 2 2 3 2 2 2 2 3 2 2
5 6 7 9 10 12 10 10 7 5 6 5 4 3 2 3 5 7 7 6 7 7 8 8 8 8 8 8 7 7 6 4 3 3 2 2 2 2 2 3 2 3 2 3 3 3 4 2 2
10 10 8 10 10 9 7 9 6 2 3 4 3 2 2 2 4 6 7 7 7 7 8 8 9 8 8 8 7 7 6 5 5 4 3 2 2 1 1 2 2 2 2 3 3 3 3 3 3
12 13 9 8 8 7 8 9 4 2 2 2 2 1 2 2 3 5 6 6 7 7 8 8 8 8 8 7 6 5 5 4 3 3 2 2 2 1 1 2 2 3 2 2 2 3 3 2 3
13 13 11 10 9 9 7 6 5 5 4 3 3 2 3 3 4 4 5 6 6 7 7 7 8 8 7 7 6 6 5 4 3 3 3 2 1 1 1 2 2 2 2 3 3 2 2 2 3
10 10 9 11 10 11 10 9 6 6 5 4 3 3 3 4 4 4 4 4 5 6 6 6 7 7 7 7 6 5 6 5 4 3 2 1 1 1 1 1 2 2 2 3 3 2 2 2 2
10 11 10 10 10 10 9 5 2 3 3 2 2 3 3 3 4 4 4 4 5 6 7 6 6 7 7 7 6 5 5 5 4 3 3 2 2 2 2 1 2 2 2 2 2 2 2 2 2
10 11 12 10 9 10 10 3 5 2 1 1 2 3 3 3 3 5 5 5 5 5 5 6 6 6 6 6 6 5 5 5 4 4 3 3 2 2 2 2 2 2 2 2 2 2 2 2 2
Wind_Direction
188 196 221 236 236 177 83 76 64 81 82 68 55 30 31 26 15 57 100 130 129 132 132 142 139 136 131 125 120 117 113 110 106 103 100 97 92 83 79 81 81 81 83 93 101 107 119 130 129
192 201 231 241 260 112 91 77 74 66 79 99 97 70 61 64 55 94 123 130 136 133 137 135 134 135 131 127 124 120 117 111 105 103 100 95 89 83 78 79 80 81 81 87 99 98 110 121 128
204 232 256 253 8 52 85 77 78 86 105 132 109 64 42 63 94 113 121 138 138 134 137 129 139 136 133 131 129 123 118 112 105 99 96 93 89 85 82 80 80 83 84 85 95 99 104 112 123
226 225 237 247 90 64 55 71 88 127 130 129 128 105 86 62 88 112 131 142 141 143 145 130 142 138 135 134 130 123 117 110 102 94 89 86 84 83 81 79 79 82 88 93 95 102 107 109 115
241 252 228 169 96 87 67 73 125 132 129 125 128 106 98 87 97 120 138 147 149 147 144 132 140 139 137 136 130 125 118 109 98 91 86 84 80 77 79 82 81 84 88 93 99 106 109 110 113
239 245 232 150 112 102 97 98 152 128 129 135 139 120 98 110 128 136 145 151 149 148 143 132 142 143 140 135 131 124 117 109 99 96 85 77 74 72 72 81 86 91 93 99 108 109 110 116 117
269 259 246 167 131 116 84 104 155 133 142 140 151 128 118 136 135 143 147 151 151 150 147 149 152 151 151 143 136 131 122 111 99 91 82 76 69 65 60 76 114 108 103 107 114 113 114 120 119
280 262 216 187 168 112 91 127 97 245 116 119 187 159 137 144 146 148 149 153 153 154 156 157 156 150 159 153 148 151 142 126 118 109 95 103 150 136 82 108 108 105 106 107 109 114 117 120 124
257 246 208 191 185 107 100 194 140 153 156 163 170 57 111 140 153 155 158 160 161 163 167 166 159 157 163 147 144 168 168 165 188 166 159 217 144 94 100 74 91 102 105 108 112 117 121 136 141
243 240 208 42 346 25 27 272 213 194 186 177 160 128 133 151 163 169 170 171 172 172 175 170 167 166 166 156 158 179 176 155 196 143 162 154 68 59 63 98 108 110 119 135 132 143 165 193 150
238 252 227 228 319 310 282 267 231 238 217 197 177 157 157 165 173 179 179 177 176 174 173 174 170 176 178 171 165 172 169 155 181 159 171 109 119 92 84 105 135 145 168 157 151 183 163 126 84
239 247 270 274 299 281 272 265 243 244 270 210 177 162 166 175 181 185 183 179 177 178 177 178 175 176 188 184 166 180 180 169 165 142 212 145 104 62 69 51 49 72 99 96 94 125 116 118 126
233 239 254 273 267 263 256 246 252 251 273 146 151 162 174 181 185 185 182 178 180 182 181 178 177 171 176 185 206 176 188 181 147 147 135 16 166 64 44 44 21 347 52 120 133 105 121 138 142
235 249 255 257 241 227 231 232 221 213 169 160 164 172 180 184 185 181 183 184 186 186 183 176 181 175 179 186 191 186 192 183 183 155 126 246 308 51 348 35 14 340 4 33 47 104 152 117 104
238 240 230 221 226 216 228 224 216 185 177 179 179 182 186 189 187 188 187 187 186 184 181 180 180 175 180 191 194 185 187 186 187 151 153 200 246 108 9 27 273 358 29 75 81 130 148 137 135
222 230 224 189 213 212 234 228 174 164 189 193 188 187 190 191 195 192 187 185 184 182 178 182 182 174 178 186 194 194 186 178 180 170 158 175 195 197 249 246 76 308 231 193 160 170 141 124 143
215 226 225 195 193 219 234 243 168 174 204 206 198 197 198 191 198 194 191 184 182 181 177 179 184 182 182 180 183 186 175 190 192 170 171 163 184 201 236 225 51 235 212 197 254 109 144 134 124
221 228 225 224 185 226 237 249 224 207 218 219 210 203 204 202 198 193 190 182 179 179 178 179 177 180 184 180 179 185 184 188 190 184 186 185 184 196 232 188 181 235 175 154 100 133 143 154 179
252 246 237 230 216 244 242 250 243 227 225 224 217 211 207 206 194 181 182 180 178 178 178 179 180 177 182 186 192 187 187 190 187 191 195 199 206 204 222 200 172 207 155 163 179 199 170 169 163
238 239 237 227 218 251 247 248 237 229 228 231 228 220 213 197 185 174 176 179 181 180 180 180 182 181 186 186 193 190 190 189 187 202 188 200 200 218 204 218 201 180 175 176 189 206 211 175 189
229 239 244 245 234 231 250 239 220 211 217 223 232 228 215 205 193 181 181 183 183 182 183 183 183 180 186 184 184 178 183 193 186 192 186 191 201 206 227 213 211 198 210 185 205 208 208 205 194
230 232 246 244 244 233 236 248 208 204 210 212 218 216 214 203 198 190 184 183 185 185 182 184 181 180 180 185 191 190 195 197 196 202 179 180 194 217 227 224 202 215 220 201 217 195 223 228 214
244 231 235 240 244 252 229 252 217 199 218 209 205 208 214 209 199 195 193 185 183 184 181 178 177 180 180 186 190 198 204 205 195 195 177 195 180 214 231 223 208 208 216 212 231 220 232 224 238
223 210 219 233 239 239 234 245 237 205 221 220 208 203 203 207 197 192 189 180 179 177 174 172 174 178 179 184 189 198 202 208 206 204 197 204 196 204 217 220 212 208 213 212 217 225 215 230 225
214 218 215 215 219 230 210 237 246 231 229 239 232 214 172 181 184 182 182 180 177 175 172 171 172 175 177 181 187 193 200 205 211 219 207 227 221 206 208 217 215 214 214 218 219 213 226 216 213
213 227 239 241 235 221 193 233 220 156 187 219 220 177 149 161 164 172 174 173 170 169 170 170 172 174 175 177 181 184 193 204 202 211 225 215 241 250 218 194 205 212 216 217 214 214 207 200 212
215 225 243 258 259 253 219 215 209 180 191 197 191 162 145 149 155 159 159 164 166 166 168 171 171 172 174 174 175 178 187 195 190 189 210 210 222 220 190 191 199 199 205 213 210 205 207 203 219
239 227 228 240 244 243 233 225 219 197 201 199 188 162 137 141 146 143 150 156 157 158 159 163 169 169 169 170 177 172 176 181 188 192 186 198 204 179 185 187 195 194 195 203 214 207 198 199 208
208 216 226 238 248 252 244 222 151 184 210 211 178 155 142 144 147 141 143 148 146 153 154 159 165 167 168 168 167 162 166 167 174 174 172 174 173 170 185 192 199 197 197 193 201 213 207 213 217
222 219 220 232 233 247 262 235 113 160 192 195 157 140 139 139 140 139 144 145 145 148 149 155 160 164 165 160 158 155 153 154 162 159 159 156 162 165 171 184 198 197 190 191 202 213 210 221 220